Location: Bud�kov
(50.6521°N, 14.9488°E)
Time: 07:58:03
(UTC+00:00)

Daily predictions for brighter satellites

Satellite Brightness Start Highest point End
(mag) Time Altitude Azimuth Time Altitude Azimuth Time Altitude Azimuth
Cosmos 1726 Rocket 4.3 16:01:05 10° N 16:04:58 30° ENE 16:08:50 10° SE
COSMOS 2455 4.1 16:01:05 10° SSE 16:05:27 21° ESE 16:09:51 10° ENE
Meteor 1-24 Rocket 4.2 16:01:25 10° SSE 16:06:11 34° E 16:10:56 10° NNE
CREW DRAGON DEMO-1 DEB 2.7 16:04:05 10° W 16:06:59 69° N 16:09:52 10° E
Cosmos 1833 Rocket 4.5 16:06:35 10° N 16:09:17 13° NNE 16:11:58 10° NE
Cosmos 1908 3.9 16:06:20 10° NNW 16:10:09 60° W 16:13:58 10° S
Cosmos 2082 Rocket 4.2 16:08:52 10° N 16:10:31 11° NNE 16:12:12 10° NNE
Cosmos 1939 Rocket 3.6 16:06:49 10° SE 16:10:31 33° ENE 16:14:13 10° N
NOSS 3-4 (A) 3.8 16:06:18 10° WSW 16:12:12 64° NW 16:18:38 10° NE
NOSS 3-4 (C) 3.8 16:06:27 10° WSW 16:12:21 65° NW 16:18:47 10° NE
Cosmos 2279 Rocket 4.2 16:11:09 10° N 16:17:17 52° ENE 16:23:22 10° SSE
Cosmos 1674 3.3 16:13:45 10° SSW 16:17:33 60° WNW 16:21:23 10° N
Cosmos 1315 Rocket 2.8 16:15:07 10° N 16:19:04 62° ENE 16:23:02 10° SSE
Cosmos 1503 Rocket 4.1 16:16:58 10° SSW 16:22:19 73° ESE 16:27:43 10° NNE
CZ-4 R/B 2.6 16:19:48 10° ESE 16:22:51 21° ENE 16:25:53 10° NNE
Cosmos 2227 4.3 16:17:51 10° SSW 16:23:25 65° ESE 16:29:04 10° NE
Cosmos 1536 Rocket 3.8 16:19:37 10° SSW 16:24:00 73° W 16:28:27 10° N
COSMO-SKYMED 1 3.7 16:20:44 10° NE 16:24:20 25° E 16:27:55 10° SSE
Cosmos 2227 Rocket 3.7 16:21:35 10° WSW 16:26:33 30° NW 16:31:34 10° NNE
ATLAS 2AS CENTAUR R/B 3.3 16:21:51 10° SW 16:29:47 71° NW 16:37:34 10° NE
Cosmos 1634 Rocket 4.1 16:24:44 10° N 16:31:00 86° W 16:37:18 10° S
Cosmos 1844 Rocket 4.0 16:30:12 10° SSE 16:34:18 21° E 16:37:42 12° ENE
Cosmos 1025 Rocket 4.5 16:31:03 10° SW 16:35:07 39° WNW 16:39:14 10° N
CZ-2C R/B 3.5 16:30:27 10° SE 16:35:29 45° ENE 16:40:49 10° N
Okean-O 3.5 16:33:41 10° ESE 16:37:26 28° ENE 16:41:13 10° N
H-2A R/B 3.4 16:33:33 10° S 16:37:29 53° W 16:41:37 10° NNW
H-2A R/B 2.8 16:34:13 10° ESE 16:38:30 29° ENE 16:42:54 10° N
Cosmos 2344 4.4 16:30:38 10° NW 16:38:39 46° NNE 16:49:16 10° E
CZ-4B R/B 2.2 16:35:37 10° NNE 16:38:42 31° E 16:41:43 10° SSE
Okean O Rocket 1.9 16:35:52 10° S 16:40:18 75° WSW 16:44:46 10° NNW
SeaSat 1 4.0 16:36:07 10° NNE 16:40:27 31° NW 16:44:46 10° WSW
Cosmos 773 Rocket 4.0 16:35:55 10° NNW 16:41:07 86° WSW 16:46:15 10° SSE
Cosmos 1680 Rocket 4.4 16:36:55 10° N 16:41:21 27° NE 16:45:44 10° ESE
SMAP 3.8 16:37:48 10° S 16:42:22 57° W 16:46:59 10° NNW
Cosmos 1626 2.6 16:39:44 10° SSW 16:43:24 62° WNW 16:47:05 10° N
CZ-4B R/B 3.7 16:38:53 10° S 16:44:23 66° WSW 16:50:02 10° NNW
Aureole 2 Rocket 3.7 16:45:57 10° SE 16:48:02 17° ESE 16:48:02 17° ESE
Meteor 2-10 Rocket 3.6 16:45:13 10° N 16:50:46 60° ENE 16:56:02 10° SSE
Cosmos 2297 Rocket 4.2 16:47:11 10° W 16:51:22 21° NW 16:55:34 10° NNE
Cosmos 1606 Rocket 3.8 16:51:34 10° NNW 16:55:58 74° W 17:00:20 10° S
CZ-2D R/B 3.2 16:53:12 10° SSE 16:57:01 65° ENE 17:00:51 10° N
H-2A R/B 2.4 16:52:43 10° N 16:57:12 71° WNW 17:01:34 10° SSW
USA 234 3.6 16:52:59 16° ENE 16:58:06 53° N 17:04:27 10° WNW
CSL-04 Rocket 4.3 16:54:38 10° ESE 16:59:24 33° ENE 17:04:15 10° N
YAOGAN 1 3.0 16:55:39 10° SE 16:59:41 40° ENE 17:03:44 10° N
Cosmos 1892 Rocket 3.5 16:56:07 10° S 17:00:23 59° E 17:04:40 10° NNE
ATLAS 5 CENTAUR R/B 1.7 16:58:28 10° SW 17:02:33 72° NW 17:06:05 17° NE
Meteor 2-1 Rocket 4.3 16:58:23 10° N 17:03:51 51° ENE 17:09:12 10° SSE
Iridium 4 Rocket 4.4 17:00:20 10° NNE 17:05:19 29° ENE 17:09:59 10° SE
Helios 1A Rocket 3.4 17:01:43 10° SE 17:05:32 36° ENE 17:09:22 10° N
SL-14 R/B 4.2 17:02:10 10° SSW 17:05:56 48° WNW 17:09:46 10° N
MOS 1 Rocket 3.3 17:02:27 10° NNE 17:06:40 47° E 17:10:47 10° S
Cosmos 2228 4.0 17:03:46 10° NNW 17:07:54 49° W 17:12:01 10° S
RESURS DK-1 3.6 17:04:05 10° WSW 17:07:58 38° NW 17:11:52 10° NNE
Cosmos 1812 Rocket 4.4 17:07:07 10° N 17:10:56 28° ENE 17:11:36 26° E
SKYMED 2 3.5 17:08:15 10° NNE 17:12:37 70° ESE 17:16:57 10° S
Cosmos 1538 Rocket 4.1 17:09:37 10° NNW 17:14:48 78° WSW 17:19:58 10° SSE
Aureole 3 3.1 17:11:21 10° N 17:14:58 47° ENE 17:18:02 10° SSE
Meteor 2-5 Rocket 4.3 17:09:29 10° SSW 17:14:58 57° WNW 17:20:26 10° N
CZ-4C R/B 3.3 17:11:18 10° W 17:16:23 40° NNW 17:21:18 15° NE
CZ-3B R/B 1.5 17:14:50 10° WNW 17:17:09 79° NNE 17:20:09 22° ESE
SJ-11-01 4.4 17:12:46 10° SE 17:17:18 51° ENE 17:21:51 10° N
SJ 16-02 1.9 17:13:45 10° S 17:17:48 36° ESE 17:18:57 31° ENE
Cosmos 2112 Rocket 4.4 17:14:05 10° NNW 17:19:04 40° ENE 17:21:52 23° ESE
Nadezhda 4 Rocket 4.0 17:13:00 10° S 17:19:06 59° E 17:25:11 10° NNE
Cosmos 1777 Rocket 4.0 17:15:52 10° SSW 17:21:08 86° ESE 17:26:00 13° NNE
Cosmos 2263 Rocket 2.9 17:17:48 10° SW 17:23:21 51° NW 17:28:53 10° NNE
Cosmos 1455 2.0 17:21:42 10° N 17:25:30 68° ENE 17:29:18 10° SSE
Cosmos 2058 Rocket 3.4 17:22:54 10° NNW 17:27:24 71° W 17:31:53 10° S
COSMOS 2406 3.9 17:26:29 10° NNW 17:31:44 33° NE 17:32:43 31° ENE
X-37B 2.9 17:31:34 10° SSW 17:33:14 15° SSE 17:33:14 15° SSE
Meteor 2-13 Rocket 4.3 17:31:29 10° S 17:37:34 75° E 17:43:43 10° NNE
ARGOS 3.1 17:32:44 10° SSE 17:38:00 63° ENE 17:43:21 10° N
Lacrosse 5 2.2 17:36:53 10° WNW 17:41:54 65° SW 17:44:59 23° SE
Okean 1-7 Rocket 3.7 17:37:23 10° SSW 17:41:57 82° W 17:46:33 10° N
NOSS 3-1 (C) 4.0 17:34:56 10° NW 17:42:05 67° NE 17:47:11 26° ESE
CREW DRAGON DEMO-1 DEB 3.2 17:39:19 10° WNW 17:41:52 56° WSW 17:41:52 56° WSW
ERS-2 2.0 17:42:03 40° NNE 17:43:17 88° WNW 17:46:55 10° SSW
CZ-2C R/B 3.3 17:45:49 35° ESE 17:45:49 35° ESE 17:50:06 10° SSE
PSLV R/B 3.8 17:43:31 29° NNE 17:45:39 80° ESE 17:49:51 10° SSW
ISS -2.2 17:42:48 10° SSW 17:45:00 27° S 17:45:00 27° S
CSL-04 Debris 4.0 17:42:43 10° SSE 17:48:06 77° ENE 17:53:31 10° NNW
Cosmos 1553 Rocket 4.3 17:44:33 10° N 17:50:38 42° ENE 17:51:29 40° E
COSMOS 2455 2.8 17:44:38 10° SW 17:50:41 85° NW 17:54:03 28° NE
Cosmos 1626 Rocket 3.4 17:48:47 10° S 17:53:08 73° E 17:54:01 54° NNE
Cosmos 1833 Rocket 3.2 17:49:38 10° NNW 17:54:41 39° NE 17:54:41 39° NE
Cosmos 1844 3.6 17:49:56 10° SSW 17:55:30 64° ESE 17:57:10 44° NE
Cosmos 2026 Rocket 4.0 17:50:17 10° SSE 17:56:11 54° E 18:02:13 10° NNE
USA 281 4.1 17:56:41 28° NE 17:56:41 28° NE 18:01:57 10° NNW
Cosmos 2082 Rocket 3.4 17:51:53 10° NNW 17:55:56 27° NNE 17:55:56 27° NNE
Cosmos 990 Rocket 4.5 17:52:17 10° S 17:56:17 41° SE 17:56:17 41° SE
CZ-4 R/B 2.3 17:53:37 10° S 17:57:36 48° W 18:01:32 10° NNW
USA 229 DEB 3.9 17:51:56 10° NW 17:59:04 64° NE 18:01:49 40° ESE
USA 229 3.9 17:52:02 10° NW 17:59:10 63° NE 18:01:52 41° ESE
COSMO-SKYMED 1 3.8 17:56:33 10° N 18:00:39 42° WNW 18:04:45 10° SW
DMSP B5D1-3 4.3 18:01:30 33° NNE 18:03:51 78° ESE 18:08:57 10° SSW
USA 267 4.0 18:04:12 33° SE 18:04:12 33° SE 18:09:56 10° SSW
SL-08 RB Rocket 3.6 18:05:16 70° NNE 18:05:16 70° NNE 18:09:25 10° N
Ariane Rocket 4.4 18:10:03 24° NNE 18:10:03 24° NNE 18:12:17 10° N
CZ-4B R/B 3.9 18:08:13 11° NNW 18:10:45 21° WNW 18:13:20 10° WSW
Okean-O 3.9 18:09:36 10° SSW 18:13:47 40° W 18:18:00 10° NNW
NOSS 3-1 (A) 3.9 18:07:28 10° NW 18:14:38 67° NE 18:16:57 48° ESE
Cosmos 1844 Rocket 2.7 18:11:53 10° SW 18:17:33 77° WNW 18:19:24 44° NNE
H-2A R/B 2.9 18:12:56 10° S 18:17:44 47° W 18:22:41 10° NNW
Meteor 1-21 Rocket 4.4 18:14:22 10° SSW 18:19:52 69° WNW 18:25:18 11° N
Cosmos 2195 Rocket 4.4 18:15:29 10° S 18:21:50 89° WNW 18:28:13 10° N
Meteor 2-8 Rocket 4.5 18:15:50 10° NNW 18:21:56 78° W 18:28:02 10° S
ATLAS 2AS CENTAUR R/B 4.1 18:14:55 10° W 18:22:04 35° NNW 18:25:30 25° NNE
Meteor 2-15 4.3 18:16:29 10° N 18:22:40 78° ENE 18:24:42 45° SSE
Cosmos 1680 Rocket 3.9 18:18:41 10° NNW 18:23:53 61° WSW 18:26:36 27° S
Cosmos 1898 Rocket 4.4 18:20:30 10° S 18:23:42 37° S 18:23:42 37° S
Cosmos 1627 Rocket 4.4 18:25:30 10° S 18:31:41 85° W 18:38:01 10° N
Cosmos 2098 Rocket 4.2 18:25:55 10° S 18:33:03 80° E 18:40:30 10° NNE
Cosmos 1818 3.7 18:29:17 10° SW 18:34:43 71° NW 18:34:52 71° NNW
Cosmos 1428 Rocket 4.4 18:30:24 10° S 18:36:42 84° W 18:43:04 10° N
USA 234 3.1 18:40:20 76° E 18:40:49 81° NNE 18:47:24 10° WNW
Iridium 4 Rocket 4.4 18:40:03 10° NNW 18:45:36 51° W 18:50:45 10° SSW
Cosmos 1092 Rocket 4.5 18:40:52 10° SSW 18:46:57 57° WNW 18:53:02 10° N
ATLAS 5 CENTAUR R/B 3.6 18:44:25 10° WNW 18:47:38 23° NNW 18:47:38 23° NNW
Cosmos 2344 4.3 18:45:05 10° NW 18:54:14 82° SW 18:59:35 39° SSE
SJ 16-02 3.1 18:52:31 10° WSW 18:56:00 30° WNW 18:56:00 30° WNW
CZ-4C R/B 3.9 19:01:35 10° WNW 19:06:30 27° N 19:06:30 27° N
Cosmos 2263 Rocket 4.5 19:05:13 10° WNW 19:08:40 16° NNW 19:10:38 14° N
COSMOS 2406 4.2 19:10:42 10° NW 19:14:49 44° WNW 19:14:49 44° WNW
Lacrosse 5 4.3 19:21:10 10° W 19:24:03 15° WSW 19:24:15 15° SW
CZ-2C R/B 4.2 19:27:19 31° WSW 19:27:19 31° WSW 19:30:32 10° SW
Cosmos 1833 Rocket 4.4 19:33:36 10° NW 19:36:25 28° NW 19:36:25 28° NW
USA 281 4.4 19:43:33 35° NNW 19:43:33 35° NNW 19:47:02 10° NNW
Cosmos 2082 Rocket 4.1 19:35:42 10° NNW 19:37:48 23° NW 19:37:48 23° NW
ATLAS 2AS CENTAUR R/B 4.4 20:08:19 10° NW 20:12:56 28° NNW 20:12:56 28° NNW
